Year,Month,Day,Hour,Minute,Value (Times are PST for temperature in C)
2008,04,25,00,00,4.30
2008,04,25,00,01,4.20
2008,04,25,00,02,4.20
2008,04,25,00,03,4.20
2008,04,25,00,04,4.10
2008,04,25,00,05,4.10
2008,04,25,00,06,4.10
2008,04,25,00,07,4.10
2008,04,25,00,08,4.10
2008,04,25,00,09,4.10
2008,04,25,00,10,4.10
2008,04,25,00,11,4.10
2008,04,25,00,12,4.20
2008,04,25,00,13,4.20
2008,04,25,00,14,4.20
2008,04,25,00,15,4.20
2008,04,25,00,16,4.10
2008,04,25,00,17,4.10
2008,04,25,00,18,4.10
2008,04,25,00,19,4.10
2008,04,25,00,20,4.10
2008,04,25,00,21,4.10
2008,04,25,00,22,4.10
2008,04,25,00,23,4.20
2008,04,25,00,24,4.10
2008,04,25,00,25,4.10
2008,04,25,00,26,4.10
2008,04,25,00,27,4.10
2008,04,25,00,28,4.10
2008,04,25,00,29,4.10
2008,04,25,00,30,4.10
2008,04,25,00,31,4.00
2008,04,25,00,32,3.90
2008,04,25,00,33,3.90
2008,04,25,00,34,3.80
2008,04,25,00,35,3.80
2008,04,25,00,36,3.80
2008,04,25,00,37,3.70
2008,04,25,00,38,3.70
2008,04,25,00,39,3.70
2008,04,25,00,40,3.70
2008,04,25,00,41,3.70
2008,04,25,00,42,3.70
2008,04,25,00,43,3.70
2008,04,25,00,44,3.70
2008,04,25,00,45,3.70
2008,04,25,00,46,3.70
2008,04,25,00,47,3.70
2008,04,25,00,48,3.70
2008,04,25,00,49,3.70
2008,04,25,00,50,3.60
2008,04,25,00,51,3.60
2008,04,25,00,52,3.60
2008,04,25,00,53,3.50
2008,04,25,00,54,3.50
2008,04,25,00,55,3.40
2008,04,25,00,56,3.40
2008,04,25,00,57,3.40
2008,04,25,00,58,3.40
2008,04,25,00,59,3.40
2008,04,25,01,00,3.40
2008,04,25,01,01,3.50
2008,04,25,01,02,3.50
2008,04,25,01,03,3.50
2008,04,25,01,04,3.50
2008,04,25,01,05,3.40
2008,04,25,01,06,3.50
2008,04,25,01,07,3.50
2008,04,25,01,08,3.50
2008,04,25,01,09,3.40
2008,04,25,01,10,3.40
2008,04,25,01,11,3.40
2008,04,25,01,12,3.30
2008,04,25,01,13,3.30
2008,04,25,01,14,3.30
2008,04,25,01,15,3.20
2008,04,25,01,16,3.20
2008,04,25,01,17,3.20
2008,04,25,01,18,3.20
2008,04,25,01,19,3.20
2008,04,25,01,20,3.20
2008,04,25,01,21,3.10
2008,04,25,01,22,3.10
2008,04,25,01,23,3.10
2008,04,25,01,24,3.10
2008,04,25,01,25,3.10
2008,04,25,01,26,3.00
2008,04,25,01,27,3.00
2008,04,25,01,28,3.00
2008,04,25,01,29,2.90
2008,04,25,01,30,2.90
2008,04,25,01,31,2.90
2008,04,25,01,32,2.90
2008,04,25,01,33,2.90
2008,04,25,01,34,2.90
2008,04,25,01,35,2.80
2008,04,25,01,36,2.90
2008,04,25,01,37,2.90
2008,04,25,01,38,2.90
2008,04,25,01,39,2.90
2008,04,25,01,40,2.90
2008,04,25,01,41,2.80
2008,04,25,01,42,2.80
2008,04,25,01,43,2.80
2008,04,25,01,44,2.80
2008,04,25,01,45,2.70
2008,04,25,01,46,2.70
2008,04,25,01,47,2.70
2008,04,25,01,48,2.70
2008,04,25,01,49,2.70
2008,04,25,01,50,2.70
2008,04,25,01,51,2.80
2008,04,25,01,52,2.80
2008,04,25,01,53,2.80
2008,04,25,01,54,2.80
2008,04,25,01,55,2.80
2008,04,25,01,56,2.80
2008,04,25,01,57,2.80
2008,04,25,01,58,2.80
2008,04,25,01,59,2.80
2008,04,25,02,00,2.80
2008,04,25,02,01,2.80
2008,04,25,02,02,2.80
2008,04,25,02,03,2.80
2008,04,25,02,04,2.80
2008,04,25,02,05,2.80
2008,04,25,02,06,2.80
2008,04,25,02,07,2.80
2008,04,25,02,08,2.90
2008,04,25,02,09,2.90
2008,04,25,02,10,2.90
2008,04,25,02,11,2.90
2008,04,25,02,12,2.90
2008,04,25,02,13,2.90
2008,04,25,02,14,2.90
2008,04,25,02,15,2.80
2008,04,25,02,16,2.80
2008,04,25,02,17,2.80
2008,04,25,02,18,2.80
2008,04,25,02,19,2.80
2008,04,25,02,20,2.80
2008,04,25,02,21,2.80
2008,04,25,02,22,2.80
2008,04,25,02,23,2.80
2008,04,25,02,24,2.80
2008,04,25,02,25,2.80
2008,04,25,02,26,2.80
2008,04,25,02,27,2.80
2008,04,25,02,28,2.80
2008,04,25,02,29,2.70
2008,04,25,02,30,2.70
2008,04,25,02,31,2.80
2008,04,25,02,32,2.70
2008,04,25,02,33,2.80
2008,04,25,02,34,2.80
2008,04,25,02,35,2.80
2008,04,25,02,36,2.80
2008,04,25,02,37,2.80
2008,04,25,02,38,2.80
2008,04,25,02,39,2.80
2008,04,25,02,40,2.80
2008,04,25,02,41,2.80
2008,04,25,02,42,2.80
2008,04,25,02,43,2.80
2008,04,25,02,44,2.80
2008,04,25,02,45,2.80
2008,04,25,02,46,2.80
2008,04,25,02,47,2.70
2008,04,25,02,48,2.80
2008,04,25,02,49,2.70
2008,04,25,02,50,2.70
2008,04,25,02,51,2.70
2008,04,25,02,52,2.70
2008,04,25,02,53,2.70
2008,04,25,02,54,2.60
2008,04,25,02,55,2.60
2008,04,25,02,56,2.70
2008,04,25,02,57,2.70
2008,04,25,02,58,2.70
2008,04,25,02,59,2.70
2008,04,25,03,00,2.60
2008,04,25,03,01,2.60
2008,04,25,03,02,2.60
2008,04,25,03,03,2.60
2008,04,25,03,04,2.60
2008,04,25,03,05,2.60
2008,04,25,03,06,2.60
2008,04,25,03,07,2.60
2008,04,25,03,08,2.50
2008,04,25,03,09,2.50
2008,04,25,03,10,2.60
2008,04,25,03,11,2.50
2008,04,25,03,12,2.50
2008,04,25,03,13,2.50
2008,04,25,03,14,2.50
2008,04,25,03,15,2.50
2008,04,25,03,16,2.60
2008,04,25,03,17,2.60
2008,04,25,03,18,2.60
2008,04,25,03,19,2.60
2008,04,25,03,20,2.60
2008,04,25,03,21,2.70
2008,04,25,03,22,2.70
2008,04,25,03,23,2.80
2008,04,25,03,24,2.80
2008,04,25,03,25,2.80
2008,04,25,03,26,2.80
2008,04,25,03,27,2.80
2008,04,25,03,28,2.80
2008,04,25,03,29,2.80
2008,04,25,03,30,2.70
2008,04,25,03,31,2.70
2008,04,25,03,32,2.60
2008,04,25,03,33,2.60
2008,04,25,03,34,2.60
2008,04,25,03,35,2.50
2008,04,25,03,36,2.40
2008,04,25,03,37,2.40
2008,04,25,03,38,2.50
2008,04,25,03,39,2.60
2008,04,25,03,40,2.80
2008,04,25,03,41,2.90
2008,04,25,03,42,2.90
2008,04,25,03,43,2.90
2008,04,25,03,44,3.00
2008,04,25,03,45,3.00
2008,04,25,03,46,3.10
2008,04,25,03,47,3.10
2008,04,25,03,48,3.10
2008,04,25,03,49,3.10
2008,04,25,03,50,3.00
2008,04,25,03,51,3.00
2008,04,25,03,52,2.90
2008,04,25,03,53,2.90
2008,04,25,03,54,2.80
2008,04,25,03,55,2.80
2008,04,25,03,56,2.70
2008,04,25,03,57,2.70
2008,04,25,03,58,2.60
2008,04,25,03,59,2.60
2008,04,25,04,00,2.60
2008,04,25,04,01,2.50
2008,04,25,04,02,2.50
2008,04,25,04,03,2.40
2008,04,25,04,04,2.40
2008,04,25,04,05,2.30
2008,04,25,04,06,2.30
2008,04,25,04,07,2.30
2008,04,25,04,08,2.20
2008,04,25,04,09,2.20
2008,04,25,04,10,2.20
2008,04,25,04,11,2.20
2008,04,25,04,12,2.20
2008,04,25,04,13,2.20
2008,04,25,04,14,2.20
2008,04,25,04,15,2.10
2008,04,25,04,16,2.10
2008,04,25,04,17,2.10
2008,04,25,04,18,2.00
2008,04,25,04,19,2.00
2008,04,25,04,20,2.00
2008,04,25,04,21,2.00
2008,04,25,04,22,1.90
2008,04,25,04,23,1.90
2008,04,25,04,24,1.90
2008,04,25,04,25,1.90
2008,04,25,04,26,1.90
2008,04,25,04,27,1.80
2008,04,25,04,28,1.90
2008,04,25,04,29,1.80
2008,04,25,04,30,1.80
2008,04,25,04,31,1.80
2008,04,25,04,32,1.80
2008,04,25,04,33,1.80
2008,04,25,04,34,1.80
2008,04,25,04,35,1.80
2008,04,25,04,36,1.80
2008,04,25,04,37,1.80
2008,04,25,04,38,1.80
2008,04,25,04,39,1.80
2008,04,25,04,40,1.80
2008,04,25,04,41,1.70
2008,04,25,04,42,1.70
2008,04,25,04,43,1.70
2008,04,25,04,44,1.70
2008,04,25,04,45,1.70
2008,04,25,04,46,1.70
2008,04,25,04,47,1.70
2008,04,25,04,48,1.60
2008,04,25,04,49,1.60
2008,04,25,04,50,1.50
2008,04,25,04,51,1.50
2008,04,25,04,52,1.50
2008,04,25,04,53,1.50
2008,04,25,04,54,1.50
2008,04,25,04,55,1.50
2008,04,25,04,56,1.50
2008,04,25,04,57,1.50
2008,04,25,04,58,1.50
2008,04,25,04,59,1.50
2008,04,25,05,00,1.50
2008,04,25,05,01,1.50
2008,04,25,05,02,1.40
2008,04,25,05,03,1.40
2008,04,25,05,04,1.40
2008,04,25,05,05,1.40
2008,04,25,05,06,1.40
2008,04,25,05,07,1.40
2008,04,25,05,08,1.40
2008,04,25,05,09,1.40
2008,04,25,05,10,1.30
2008,04,25,05,11,1.30
2008,04,25,05,12,1.30
2008,04,25,05,13,1.30
2008,04,25,05,14,1.30
2008,04,25,05,15,1.30
2008,04,25,05,16,1.30
2008,04,25,05,17,1.30
2008,04,25,05,18,1.30
2008,04,25,05,19,1.30
2008,04,25,05,20,1.30
2008,04,25,05,21,1.30
2008,04,25,05,22,1.30
2008,04,25,05,23,1.30
2008,04,25,05,24,1.30
2008,04,25,05,25,1.30
2008,04,25,05,26,1.30
2008,04,25,05,27,1.30
2008,04,25,05,28,1.30
2008,04,25,05,29,1.30
2008,04,25,05,30,1.20
2008,04,25,05,31,1.20
2008,04,25,05,32,1.20
2008,04,25,05,33,1.20
2008,04,25,05,34,1.30
2008,04,25,05,35,1.30
2008,04,25,05,36,1.30
2008,04,25,05,37,1.30
2008,04,25,05,38,1.30
2008,04,25,05,39,1.30
2008,04,25,05,40,1.30
2008,04,25,05,41,1.30
2008,04,25,05,42,1.30
2008,04,25,05,43,1.30
2008,04,25,05,44,1.30
2008,04,25,05,45,1.40
2008,04,25,05,46,1.40
2008,04,25,05,47,1.40
2008,04,25,05,48,1.40
2008,04,25,05,49,1.40
2008,04,25,05,50,1.50
2008,04,25,05,51,1.50
2008,04,25,05,52,1.50
2008,04,25,05,53,1.60
2008,04,25,05,54,1.60
2008,04,25,05,55,1.60
2008,04,25,05,56,1.70
2008,04,25,05,57,1.70
2008,04,25,05,58,1.70
2008,04,25,05,59,1.70
2008,04,25,06,00,1.80
2008,04,25,06,01,1.80
2008,04,25,06,02,1.80
2008,04,25,06,03,1.80
2008,04,25,06,04,1.80
2008,04,25,06,05,1.80
2008,04,25,06,06,1.80
2008,04,25,06,07,1.90
2008,04,25,06,08,1.90
2008,04,25,06,09,1.90
2008,04,25,06,10,1.90
2008,04,25,06,11,1.90
2008,04,25,06,12,1.90
2008,04,25,06,13,1.90
2008,04,25,06,14,2.00
2008,04,25,06,15,2.00
2008,04,25,06,16,2.00
2008,04,25,06,17,2.10
2008,04,25,06,18,2.10
2008,04,25,06,19,2.00
2008,04,25,06,20,2.10
2008,04,25,06,21,2.10
2008,04,25,06,22,2.10
2008,04,25,06,23,2.10
2008,04,25,06,24,2.10
2008,04,25,06,25,2.20
2008,04,25,06,26,2.20
2008,04,25,06,27,2.20
2008,04,25,06,28,2.20
2008,04,25,06,29,2.20
2008,04,25,06,30,2.30
2008,04,25,06,31,2.30
2008,04,25,06,32,2.30
2008,04,25,06,33,2.30
2008,04,25,06,34,2.30
2008,04,25,06,35,2.30
2008,04,25,06,36,2.30
2008,04,25,06,37,2.30
2008,04,25,06,38,2.40
2008,04,25,06,39,2.40
2008,04,25,06,40,2.40
2008,04,25,06,41,2.40
2008,04,25,06,42,2.40
2008,04,25,06,43,2.40
2008,04,25,06,44,2.40
2008,04,25,06,45,2.40
2008,04,25,06,46,2.40
2008,04,25,06,47,2.40
2008,04,25,06,48,2.40
2008,04,25,06,49,2.40
2008,04,25,06,50,2.50
2008,04,25,06,51,2.50
2008,04,25,06,52,2.50
2008,04,25,06,53,2.50
2008,04,25,06,54,2.60
2008,04,25,06,55,2.60
2008,04,25,06,56,2.60
2008,04,25,06,57,2.60
2008,04,25,06,58,2.70
2008,04,25,06,59,2.70
2008,04,25,07,00,2.70
2008,04,25,07,01,2.70
2008,04,25,07,02,2.70
2008,04,25,07,03,2.70
2008,04,25,07,04,2.80
2008,04,25,07,05,2.80
2008,04,25,07,06,2.80
2008,04,25,07,07,2.80
2008,04,25,07,08,2.80
2008,04,25,07,09,2.90
2008,04,25,07,10,2.90
2008,04,25,07,11,2.90
2008,04,25,07,12,3.00
2008,04,25,07,13,3.00
2008,04,25,07,14,3.10
2008,04,25,07,15,3.10
2008,04,25,07,16,3.10
2008,04,25,07,17,3.20
2008,04,25,07,18,3.20
2008,04,25,07,19,3.20
2008,04,25,07,20,3.30
2008,04,25,07,21,3.30
2008,04,25,07,22,3.30
2008,04,25,07,23,3.40
2008,04,25,07,24,3.40
2008,04,25,07,25,3.40
2008,04,25,07,26,3.50
2008,04,25,07,27,3.50
2008,04,25,07,28,3.60
2008,04,25,07,29,3.60
2008,04,25,07,30,3.60
2008,04,25,07,31,3.70
2008,04,25,07,32,3.70
2008,04,25,07,33,3.80
2008,04,25,07,34,3.80
2008,04,25,07,35,3.80
2008,04,25,07,36,3.80
2008,04,25,07,37,3.90
2008,04,25,07,38,4.00
2008,04,25,07,39,4.00
2008,04,25,07,40,4.10
2008,04,25,07,41,4.10
2008,04,25,07,42,4.20
2008,04,25,07,43,4.20
2008,04,25,07,44,4.20
2008,04,25,07,45,4.30
2008,04,25,07,46,4.30
2008,04,25,07,47,4.30
2008,04,25,07,48,4.40
2008,04,25,07,49,4.40
2008,04,25,07,50,4.40
2008,04,25,07,51,4.40
2008,04,25,07,52,4.50
2008,04,25,07,53,4.50
2008,04,25,07,54,4.60
2008,04,25,07,55,4.60
2008,04,25,07,56,4.60
2008,04,25,07,57,4.60
2008,04,25,07,58,4.70
2008,04,25,07,59,4.70
2008,04,25,08,00,4.80
2008,04,25,08,01,4.80
2008,04,25,08,02,4.80
2008,04,25,08,03,4.90
2008,04,25,08,04,4.90
2008,04,25,08,05,5.00
2008,04,25,08,06,5.00
2008,04,25,08,07,5.10
2008,04,25,08,08,5.10
2008,04,25,08,09,5.20
2008,04,25,08,10,5.20
2008,04,25,08,11,5.30
2008,04,25,08,12,5.30
2008,04,25,08,13,5.40
2008,04,25,08,14,5.40
2008,04,25,08,15,5.50
2008,04,25,08,16,5.50
2008,04,25,08,17,5.60
2008,04,25,08,18,5.60
2008,04,25,08,19,5.70
2008,04,25,08,20,5.70
2008,04,25,08,21,5.80
2008,04,25,08,22,5.80
2008,04,25,08,23,5.90
2008,04,25,08,24,5.90
2008,04,25,08,25,6.00
2008,04,25,08,26,6.10
2008,04,25,08,27,6.10
2008,04,25,08,28,6.20
2008,04,25,08,29,6.20
2008,04,25,08,30,6.30
2008,04,25,08,31,6.30
2008,04,25,08,32,6.40
2008,04,25,08,33,6.40
2008,04,25,08,34,6.50
2008,04,25,08,35,6.50
2008,04,25,08,36,6.60
2008,04,25,08,37,6.60
2008,04,25,08,38,6.70
2008,04,25,08,39,6.70
2008,04,25,08,40,6.80
2008,04,25,08,41,6.80
2008,04,25,08,42,6.90
2008,04,25,08,43,6.90
2008,04,25,08,44,7.00
2008,04,25,08,45,7.00
2008,04,25,08,46,7.10
2008,04,25,08,47,7.10
2008,04,25,08,48,7.20
2008,04,25,08,49,7.20
2008,04,25,08,50,7.20
2008,04,25,08,51,7.20
2008,04,25,08,52,7.30
2008,04,25,08,53,7.30
2008,04,25,08,54,7.30
2008,04,25,08,55,7.30
2008,04,25,08,56,7.40
2008,04,25,08,57,7.40
2008,04,25,08,58,7.40
2008,04,25,08,59,7.40
2008,04,25,09,00,7.40
2008,04,25,09,01,7.40
2008,04,25,09,02,7.40
2008,04,25,09,03,7.50
2008,04,25,09,04,7.50
2008,04,25,09,05,7.50
2008,04,25,09,06,7.60
2008,04,25,09,07,7.70
2008,04,25,09,08,7.70
2008,04,25,09,09,7.80
2008,04,25,09,10,7.80
2008,04,25,09,11,7.80
2008,04,25,09,12,7.90
2008,04,25,09,13,8.00
2008,04,25,09,14,8.00
2008,04,25,09,15,8.00
2008,04,25,09,16,8.10
2008,04,25,09,17,8.10
2008,04,25,09,18,8.10
2008,04,25,09,19,8.10
2008,04,25,09,20,8.10
2008,04,25,09,21,8.10
2008,04,25,09,22,8.20
2008,04,25,09,23,8.20
2008,04,25,09,24,8.30
2008,04,25,09,25,8.30
2008,04,25,09,26,8.30
2008,04,25,09,27,8.40
2008,04,25,09,28,8.40
2008,04,25,09,29,8.40
2008,04,25,09,30,8.30
2008,04,25,09,31,8.30
2008,04,25,09,32,8.30
2008,04,25,09,33,8.30
2008,04,25,09,34,8.40
2008,04,25,09,35,8.40
2008,04,25,09,36,8.50
2008,04,25,09,37,8.60
2008,04,25,09,38,8.60
2008,04,25,09,39,8.70
2008,04,25,09,40,8.70
2008,04,25,09,41,8.70
2008,04,25,09,42,8.80
2008,04,25,09,43,8.80
2008,04,25,09,44,8.90
2008,04,25,09,45,8.90
2008,04,25,09,46,9.00
2008,04,25,09,47,9.00
2008,04,25,09,48,9.10
2008,04,25,09,49,9.10
2008,04,25,09,50,9.20
2008,04,25,09,51,9.20
2008,04,25,09,52,9.30
2008,04,25,09,53,9.30
2008,04,25,09,54,9.30
2008,04,25,09,55,9.30
2008,04,25,09,56,9.40
2008,04,25,09,57,9.50
2008,04,25,09,58,9.50
2008,04,25,09,59,9.60
2008,04,25,10,00,9.60
2008,04,25,10,01,9.60
2008,04,25,10,02,9.60
2008,04,25,10,03,9.70
2008,04,25,10,04,9.70
2008,04,25,10,05,9.80
2008,04,25,10,06,9.80
2008,04,25,10,07,9.90
2008,04,25,10,08,9.90
2008,04,25,10,09,9.90
2008,04,25,10,10,10.00
2008,04,25,10,11,10.10
2008,04,25,10,12,10.10
2008,04,25,10,13,10.10
2008,04,25,10,14,10.00
2008,04,25,10,15,10.00
2008,04,25,10,16,10.00
2008,04,25,10,17,9.90
2008,04,25,10,18,9.80
2008,04,25,10,19,9.80
2008,04,25,10,20,9.80
2008,04,25,10,21,9.90
2008,04,25,10,22,10.00
2008,04,25,10,23,10.00
2008,04,25,10,24,10.00
2008,04,25,10,25,9.90
2008,04,25,10,26,9.90
2008,04,25,10,27,9.90
2008,04,25,10,28,9.90
2008,04,25,10,29,10.00
2008,04,25,10,30,10.00
2008,04,25,10,31,10.00
2008,04,25,10,32,10.10
2008,04,25,10,33,10.10
2008,04,25,10,34,10.10
2008,04,25,10,35,10.10
2008,04,25,10,36,10.00
2008,04,25,10,37,10.00
2008,04,25,10,38,9.90
2008,04,25,10,39,9.90
2008,04,25,10,40,9.90
2008,04,25,10,41,9.80
2008,04,25,10,42,9.80
2008,04,25,10,43,9.80
2008,04,25,10,44,9.80
2008,04,25,10,45,9.80
2008,04,25,10,46,9.80
2008,04,25,10,47,9.80
2008,04,25,10,48,9.80
2008,04,25,10,49,9.80
2008,04,25,10,50,9.70
2008,04,25,10,51,9.70
2008,04,25,10,52,9.70
2008,04,25,10,53,9.70
2008,04,25,10,54,9.70
2008,04,25,10,55,9.60
2008,04,25,10,56,9.50
2008,04,25,10,57,9.40
2008,04,25,10,58,9.40
2008,04,25,10,59,9.30
2008,04,25,11,00,9.20
2008,04,25,11,01,9.10
2008,04,25,11,02,9.10
2008,04,25,11,03,9.00
2008,04,25,11,04,8.90
2008,04,25,11,05,8.90
2008,04,25,11,06,8.90
2008,04,25,11,07,8.90
2008,04,25,11,08,8.90
2008,04,25,11,09,8.90
2008,04,25,11,10,8.90
2008,04,25,11,11,8.90
2008,04,25,11,12,8.90
2008,04,25,11,13,9.00
2008,04,25,11,14,9.00
2008,04,25,11,15,9.00
2008,04,25,11,16,9.00
2008,04,25,11,17,9.00
2008,04,25,11,18,8.90
2008,04,25,11,19,8.90
2008,04,25,11,20,8.80
2008,04,25,11,21,8.80
2008,04,25,11,22,8.90
2008,04,25,11,23,8.90
2008,04,25,11,24,8.90
2008,04,25,11,25,8.90
2008,04,25,11,26,9.00
2008,04,25,11,27,9.00
2008,04,25,11,28,9.10
2008,04,25,11,29,9.10
2008,04,25,11,30,9.10
2008,04,25,11,31,9.10
2008,04,25,11,32,9.10
2008,04,25,11,33,9.10
2008,04,25,11,34,9.10
2008,04,25,11,35,9.20
2008,04,25,11,36,9.20
2008,04,25,11,37,9.20
2008,04,25,11,38,9.20
2008,04,25,11,39,9.20
2008,04,25,11,40,9.20
2008,04,25,11,41,9.20
2008,04,25,11,42,9.20
2008,04,25,11,43,9.20
2008,04,25,11,44,9.20
2008,04,25,11,45,9.20
2008,04,25,11,46,9.10
2008,04,25,11,47,9.20
2008,04,25,11,48,9.20
2008,04,25,11,49,9.20
2008,04,25,11,50,9.20
2008,04,25,11,51,9.20
2008,04,25,11,52,9.30
2008,04,25,11,53,9.30
2008,04,25,11,54,9.30
2008,04,25,11,55,9.30
2008,04,25,11,56,9.30
2008,04,25,11,57,9.30
2008,04,25,11,58,9.30
2008,04,25,11,59,9.30
2008,04,25,12,00,9.30
2008,04,25,12,01,9.40
2008,04,25,12,02,9.40
2008,04,25,12,03,9.50
2008,04,25,12,04,9.60
2008,04,25,12,05,9.60
2008,04,25,12,06,9.60
2008,04,25,12,07,9.70
2008,04,25,12,08,9.80
2008,04,25,12,09,9.80
2008,04,25,12,10,9.90
2008,04,25,12,11,10.00
2008,04,25,12,12,10.10
2008,04,25,12,13,10.10
2008,04,25,12,14,10.20
2008,04,25,12,15,10.20
2008,04,25,12,16,10.20
2008,04,25,12,17,10.20
2008,04,25,12,18,10.30
2008,04,25,12,19,10.30
2008,04,25,12,20,10.30
2008,04,25,12,21,10.40
2008,04,25,12,22,10.40
2008,04,25,12,23,10.50
2008,04,25,12,24,10.60
2008,04,25,12,25,10.60
2008,04,25,12,26,10.70
2008,04,25,12,27,10.80
2008,04,25,12,28,10.80
2008,04,25,12,29,10.90
2008,04,25,12,30,11.00
2008,04,25,12,31,11.10
2008,04,25,12,32,11.20
2008,04,25,12,33,11.30
2008,04,25,12,34,11.40
2008,04,25,12,35,11.50
2008,04,25,12,36,11.60
2008,04,25,12,37,11.70
2008,04,25,12,38,11.80
2008,04,25,12,39,11.90
2008,04,25,12,40,11.90
2008,04,25,12,41,11.90
2008,04,25,12,42,11.90
2008,04,25,12,43,11.90
2008,04,25,12,44,11.80
2008,04,25,12,45,11.50
2008,04,25,12,46,11.10
2008,04,25,12,47,10.90
2008,04,25,12,48,10.70
2008,04,25,12,49,10.60
2008,04,25,12,50,10.50
2008,04,25,12,51,10.40
2008,04,25,12,52,10.30
2008,04,25,12,53,10.20
2008,04,25,12,54,10.10
2008,04,25,12,55,10.00
2008,04,25,12,56,10.00
2008,04,25,12,57,9.90
2008,04,25,12,58,10.00
2008,04,25,12,59,10.10
2008,04,25,13,00,10.20
2008,04,25,13,01,10.30
2008,04,25,13,02,10.40
2008,04,25,13,03,10.50
2008,04,25,13,04,10.60
2008,04,25,13,05,10.60
2008,04,25,13,06,10.60
2008,04,25,13,07,10.70
2008,04,25,13,08,10.70
2008,04,25,13,09,10.70
2008,04,25,13,10,10.60
2008,04,25,13,11,10.60
2008,04,25,13,12,10.40
2008,04,25,13,13,10.30
2008,04,25,13,14,10.20
2008,04,25,13,15,10.10
2008,04,25,13,16,9.90
2008,04,25,13,17,9.80
2008,04,25,13,18,9.80
2008,04,25,13,19,9.70
2008,04,25,13,20,9.70
2008,04,25,13,21,9.70
2008,04,25,13,22,9.80
2008,04,25,13,23,9.90
2008,04,25,13,24,10.00
2008,04,25,13,25,10.00
2008,04,25,13,26,10.10
2008,04,25,13,27,10.20
2008,04,25,13,28,10.30
2008,04,25,13,29,10.50
2008,04,25,13,30,10.70
2008,04,25,13,31,10.80
2008,04,25,13,32,11.00
2008,04,25,13,33,11.10
2008,04,25,13,34,11.20
2008,04,25,13,35,11.30
2008,04,25,13,36,11.30
2008,04,25,13,37,11.30
2008,04,25,13,38,11.30
2008,04,25,13,39,11.40
2008,04,25,13,40,11.50
2008,04,25,13,41,11.60
2008,04,25,13,42,11.50
2008,04,25,13,43,11.50
2008,04,25,13,44,11.40
2008,04,25,13,45,11.30
2008,04,25,13,46,11.20
2008,04,25,13,47,11.00
2008,04,25,13,48,11.00
2008,04,25,13,49,10.90
2008,04,25,13,50,10.90
2008,04,25,13,51,10.90
2008,04,25,13,52,10.90
2008,04,25,13,53,11.00
2008,04,25,13,54,11.20
2008,04,25,13,55,11.30
2008,04,25,13,56,11.40
2008,04,25,13,57,11.40
2008,04,25,13,58,11.50
2008,04,25,13,59,11.60
2008,04,25,14,00,11.70
2008,04,25,14,01,11.70
2008,04,25,14,02,11.50
2008,04,25,14,03,11.30
2008,04,25,14,04,11.30
2008,04,25,14,05,11.20
2008,04,25,14,06,11.20
2008,04,25,14,07,11.20
2008,04,25,14,08,11.20
2008,04,25,14,09,11.30
2008,04,25,14,10,11.30
2008,04,25,14,11,11.30
2008,04,25,14,12,11.40
2008,04,25,14,13,11.40
2008,04,25,14,14,11.40
2008,04,25,14,15,11.40
2008,04,25,14,16,11.50
2008,04,25,14,17,11.60
2008,04,25,14,18,11.60
2008,04,25,14,19,11.60
2008,04,25,14,20,11.60
2008,04,25,14,21,11.60
2008,04,25,14,22,11.70
2008,04,25,14,23,11.80
2008,04,25,14,24,11.80
2008,04,25,14,25,11.80
2008,04,25,14,26,11.80
2008,04,25,14,27,11.80
2008,04,25,14,28,11.70
2008,04,25,14,29,11.60
2008,04,25,14,30,11.50
2008,04,25,14,31,11.40
2008,04,25,14,32,11.40
2008,04,25,14,33,11.40
2008,04,25,14,34,11.40
2008,04,25,14,35,11.40
2008,04,25,14,36,11.30
2008,04,25,14,37,11.20
2008,04,25,14,38,11.10
2008,04,25,14,39,11.00
2008,04,25,14,40,10.90
2008,04,25,14,41,10.90
2008,04,25,14,42,10.90
2008,04,25,14,43,10.90
2008,04,25,14,44,10.90
2008,04,25,14,45,10.80
2008,04,25,14,46,10.80
2008,04,25,14,47,10.80
2008,04,25,14,48,10.80
2008,04,25,14,49,10.80
2008,04,25,14,50,10.80
2008,04,25,14,51,10.80
2008,04,25,14,52,10.70
2008,04,25,14,53,10.60
2008,04,25,14,54,10.60
2008,04,25,14,55,10.50
2008,04,25,14,56,10.50
2008,04,25,14,57,10.40
2008,04,25,14,58,10.40
2008,04,25,14,59,10.40
2008,04,25,15,00,10.40
2008,04,25,15,01,10.40
2008,04,25,15,02,10.40
2008,04,25,15,03,10.40
2008,04,25,15,04,10.50
2008,04,25,15,05,10.60
2008,04,25,15,06,10.60
2008,04,25,15,07,10.70
2008,04,25,15,08,10.80
2008,04,25,15,09,10.80
2008,04,25,15,10,10.80
2008,04,25,15,11,10.90
2008,04,25,15,12,11.10
2008,04,25,15,13,11.20
2008,04,25,15,14,11.30
2008,04,25,15,15,11.40
2008,04,25,15,16,11.50
2008,04,25,15,17,11.70
2008,04,25,15,18,11.80
2008,04,25,15,19,11.80
2008,04,25,15,20,11.80
2008,04,25,15,21,11.80
2008,04,25,15,22,11.80
2008,04,25,15,23,11.80
2008,04,25,15,24,11.90
2008,04,25,15,25,11.90
2008,04,25,15,26,11.90
2008,04,25,15,27,11.90
2008,04,25,15,28,11.90
2008,04,25,15,29,12.00
2008,04,25,15,30,12.10
2008,04,25,15,31,12.20
2008,04,25,15,32,12.30
2008,04,25,15,33,12.40
2008,04,25,15,34,12.50
2008,04,25,15,35,12.50
2008,04,25,15,36,12.60
2008,04,25,15,37,12.60
2008,04,25,15,38,12.60
2008,04,25,15,39,12.60
2008,04,25,15,40,12.60
2008,04,25,15,41,12.50
2008,04,25,15,42,12.50
2008,04,25,15,43,12.40
2008,04,25,15,44,12.40
2008,04,25,15,45,12.40
2008,04,25,15,46,12.40
2008,04,25,15,47,12.40
2008,04,25,15,48,12.40
2008,04,25,15,49,12.30
2008,04,25,15,50,12.10
2008,04,25,15,51,11.90
2008,04,25,15,52,11.80
2008,04,25,15,53,11.80
2008,04,25,15,54,11.90
2008,04,25,15,55,12.00
2008,04,25,15,56,12.10
2008,04,25,15,57,12.10
2008,04,25,15,58,12.10
2008,04,25,15,59,12.10
2008,04,25,16,00,12.10
2008,04,25,16,01,12.00
2008,04,25,16,02,12.00
2008,04,25,16,03,12.00
2008,04,25,16,04,12.00
2008,04,25,16,05,12.10
2008,04,25,16,06,12.10
2008,04,25,16,07,12.20
2008,04,25,16,08,12.30
2008,04,25,16,09,12.30
2008,04,25,16,10,12.40
2008,04,25,16,11,12.50
2008,04,25,16,12,12.60
2008,04,25,16,13,12.70
2008,04,25,16,14,12.90
2008,04,25,16,15,13.10
2008,04,25,16,16,13.10
2008,04,25,16,17,13.20
2008,04,25,16,18,13.10
2008,04,25,16,19,13.10
2008,04,25,16,20,13.10
2008,04,25,16,21,13.10
2008,04,25,16,22,13.10
2008,04,25,16,23,13.10
2008,04,25,16,24,13.10
2008,04,25,16,25,13.00
2008,04,25,16,26,12.90
2008,04,25,16,27,12.90
2008,04,25,16,28,12.80
2008,04,25,16,29,12.70
2008,04,25,16,30,12.60
2008,04,25,16,31,12.50
2008,04,25,16,32,12.50
2008,04,25,16,33,12.50
2008,04,25,16,34,12.50
2008,04,25,16,35,12.60
2008,04,25,16,36,12.60
2008,04,25,16,37,12.60
2008,04,25,16,38,12.60
2008,04,25,16,39,12.60
2008,04,25,16,40,12.60
2008,04,25,16,41,12.70
2008,04,25,16,42,12.70
2008,04,25,16,43,12.70
2008,04,25,16,44,12.60
2008,04,25,16,45,12.50
2008,04,25,16,46,12.40
2008,04,25,16,47,12.30
2008,04,25,16,48,12.30
2008,04,25,16,49,12.20
2008,04,25,16,50,12.20
2008,04,25,16,51,12.20
2008,04,25,16,52,12.20
2008,04,25,16,53,12.10
2008,04,25,16,54,12.10
2008,04,25,16,55,12.10
2008,04,25,16,56,12.10
2008,04,25,16,57,12.10
2008,04,25,16,58,12.20
2008,04,25,16,59,12.30
2008,04,25,17,00,12.20
2008,04,25,17,01,12.20
2008,04,25,17,02,12.20
2008,04,25,17,03,12.10
2008,04,25,17,04,12.10
2008,04,25,17,05,12.10
2008,04,25,17,06,12.20
2008,04,25,17,07,12.20
2008,04,25,17,08,12.20
2008,04,25,17,09,12.10
2008,04,25,17,10,12.10
2008,04,25,17,11,12.10
2008,04,25,17,12,12.20
2008,04,25,17,13,12.20
2008,04,25,17,14,12.20
2008,04,25,17,15,12.20
2008,04,25,17,16,12.20
2008,04,25,17,17,12.30
2008,04,25,17,18,12.30
2008,04,25,17,19,12.30
2008,04,25,17,20,12.30
2008,04,25,17,21,12.30
2008,04,25,17,22,12.30
2008,04,25,17,23,12.30
2008,04,25,17,24,12.20
2008,04,25,17,25,12.20
2008,04,25,17,26,12.20
2008,04,25,17,27,12.10
2008,04,25,17,28,12.10
2008,04,25,17,29,12.20
2008,04,25,17,30,12.20
2008,04,25,17,31,12.20
2008,04,25,17,32,12.30
2008,04,25,17,33,12.30
2008,04,25,17,34,12.40
2008,04,25,17,35,12.40
2008,04,25,17,36,12.40
2008,04,25,17,37,12.40
2008,04,25,17,38,12.40
2008,04,25,17,39,12.30
2008,04,25,17,40,12.30
2008,04,25,17,41,12.30
2008,04,25,17,42,12.30
2008,04,25,17,43,12.40
2008,04,25,17,44,12.40
2008,04,25,17,45,12.40
2008,04,25,17,46,12.50
2008,04,25,17,47,12.60
2008,04,25,17,48,12.60
2008,04,25,17,49,12.60
2008,04,25,17,50,12.60